Terminal Aerodrome Forecast
Issued by NWS Cleveland, OH

Home | Current Version | Previous Version | Graphics & Text | Print | Product List | Glossary On
Versions: 1 2 3 4 5 6 7 8 9 10 11 12 13 14 15 16 17 18 19 20 21 22 23 24 25 26 27 28 29 30 31 32 33 34 35
000
FTUS41 KCLE 291016 AAB
TAFCLE
TAF AMD
KCLE 291016Z 2910/3012 36008KT P6SM SCT010 OVC025
      TEMPO 2910/2912 BKN009
     FM291200 03010KT P6SM SCT025
      TEMPO 2912/2914 BKN025
     FM291400 04010KT P6SM SCT025 BKN250
     FM300600 08010KT P6SM OVC120=

USA.gov is the U.S. government's official web portal to all federal, state and local government web resources and services.